Weather History for Milton, FL

Change the Weather History Date:

Saturday, February 16, 2013

  Actual Average (KNSE) Record (KNSE)
Temperature  
Mean Temperature 45 °F -  
Max Temperature 53 °F 64 °F 78 °F (2012)
Min Temperature 34 °F 46 °F 24 °F (2007)
Degree Days  
Heating Degree Days 20    
Moisture  
Dew Point 26 °F    
Average Humidity 47    
Maximum Humidity 73    
Minimum Humidity 23    
Precipitation  
Precipitation 0.00 in - - ()
Sea Level Pressure  
Sea Level Pressure 30.12 in    
Wind  
Wind Speed 10 mph (NW)    
Max Wind Speed 20 mph    
Max Gust Speed 31 mph    
Visibility 10 miles    
Events      
Averages and records for this station are not official NWS values.
T = Trace of Precipitation, MM = Missing Value Source: NWS Daily Summary

Daily Weather History Graph

Daily Weather History Graph

Search for Another Location

Airport:

Trip Planner

Search our weather history database for the weather conditions in past years. The results will help you decide how hot, cold, wet, or windy it might be!

Date:

Astronomy

Feb. 16, 2013 Rise Set
Actual Time 6:27 AM CST 5:37 PM CST
Civil Twilight 6:03 AM CST 6:01 PM CST
Nautical Twilight 5:34 AM CST 6:29 PM CST
Astronomical Twilight 5:06 AM CST 6:57 PM CST
Moon 10:09 AM CST (2/16) No Moon Set
Length of Visible Light 11h 58m
Length of Day
11h 09m
Waxing Crescent, 39% of the Moon is Illuminated
Feb 16
Waxing Crescent
Feb 17
First Quarter
Feb 25
Full
Mar 4
Last Quarter
Mar 11
New

Hourly Weather History & Observations

Time (CST) Temp. Windchill Dew Point Humidity Pressure Visibility Wind Dir Wind Speed Gust Speed Precip Events Conditions
12:56 AM 48.0 °F - 37.9 °F 68% 30.03 in 10.0 mi NNW 8.1 mph - N/A   Clear
1:56 AM 48.0 °F - 37.0 °F 66% 30.03 in 10.0 mi NW 6.9 mph - N/A   Clear
2:56 AM 46.0 °F 41.9 °F 37.9 °F 73% 30.03 in 10.0 mi NW 8.1 mph - N/A   Scattered Clouds
3:56 AM 46.9 °F - 37.9 °F 71% 30.03 in 10.0 mi NW 8.1 mph - N/A   Overcast
4:56 AM 48.0 °F - 36.0 °F 63% 30.05 in 10.0 mi NW 12.7 mph 19.6 mph N/A   Overcast
5:56 AM 46.9 °F - 33.1 °F 59% 30.09 in 10.0 mi NNW 15.0 mph 24.2 mph N/A   Overcast
6:56 AM 46.0 °F - 36.0 °F 68% 30.07 in 10.0 mi Calm Calm - 0.00 in   Overcast
7:56 AM 46.9 °F - 36.0 °F 66% 30.10 in 10.0 mi NW 5.8 mph - N/A   Clear
8:56 AM 50.0 °F - 32.0 °F 50% 30.11 in 10.0 mi NNW 16.1 mph 20.7 mph N/A   Clear
9:56 AM 51.1 °F - 28.0 °F 41% 30.12 in 10.0 mi NNW 19.6 mph 26.5 mph N/A   Partly Cloudy
10:56 AM 52.0 °F - 25.0 °F 35% 30.13 in 10.0 mi NW 15.0 mph 25.3 mph N/A   Clear
11:56 AM 53.1 °F - 25.0 °F 34% 30.12 in 10.0 mi WNW 13.8 mph 26.5 mph N/A   Partly Cloudy
12:56 PM 52.0 °F - 21.0 °F 30% 30.09 in 10.0 mi NW 13.8 mph 26.5 mph N/A   Partly Cloudy
1:56 PM 51.1 °F - 17.1 °F 26% 30.07 in 10.0 mi NW 19.6 mph 31.1 mph N/A   Partly Cloudy
2:56 PM 50.0 °F - 18.0 °F 28% 30.08 in 10.0 mi NNW 18.4 mph 24.2 mph N/A   Clear
3:56 PM 51.1 °F - 14.0 °F 23% 30.09 in 10.0 mi NW 18.4 mph 26.5 mph N/A   Clear
4:56 PM 48.9 °F - 15.1 °F 26% 30.10 in 10.0 mi NW 15.0 mph 24.2 mph N/A   Clear
5:56 PM 46.0 °F 40.6 °F 15.1 °F 29% 30.13 in 10.0 mi NNW 11.5 mph - N/A   Clear
6:56 PM 42.1 °F 39.2 °F 19.0 °F 40% 30.17 in 10.0 mi NW 4.6 mph - N/A   Clear
7:56 PM 39.9 °F 35.8 °F 19.0 °F 43% 30.19 in 10.0 mi NW 5.8 mph - N/A   Clear
8:56 PM 37.9 °F 34.4 °F 19.9 °F 48% 30.23 in 10.0 mi NW 4.6 mph - N/A   Clear
9:56 PM 37.9 °F 32.7 °F 19.0 °F 47% 30.24 in 10.0 mi NNW 6.9 mph - N/A   Clear
10:56 PM 37.0 °F 32.4 °F 19.0 °F 48% 30.24 in 10.0 mi North 5.8 mph - N/A   Clear
11:56 PM 34.0 °F 29.8 °F 19.9 °F 56% 30.25 in 10.0 mi NNW 4.6 mph - N/A   Clear